Flag for Germany Weather past 2 weeks in Offenburg, Baden-Württemberg, Germany

Now
37 °F

Low clouds.


Feels Like: 33 °F
Forecast: 31 / 34 °F
Wind: 5 mph from Southwest

Location: Lahr

Current Time: Jan 31, 2015 at 5:39:40 PM

Latest Report: Jan 31, 2015 at 5:00 PM


Visibility: 13 mi

Pressure: 29.12 "Hg

Humidity: 90%

Dew point: 34 °F

Location of OffenburgLocation

Historic Weather in Offenburg — Graph

°F

Offenburg temperature yesterday

Maximum temperature yesterday: 42 °F (at 12:00 AM)
Minimum temperature yesterday: 33 °F (at 6:00 AM)
Average temperature yesterday: 37 °F

Past Weeks' High & Low Weather Summary

 TemperatureHumidityPressure
High44 °F (Jan 16, 10:00 PM)100% (Jan 18, 5:00 AM)30.50 "Hg (Jan 18, 5:00 AM)
Low27 °F (Jan 18, 8:00 AM)66% (Jan 31, 1:00 PM)28.79 "Hg (Jan 30, 1:00 AM)
Average36 °F89%29.92 "Hg
* Reported Jan 16 4:00 PM — Jan 31 4:00 PM, Offenburg, Weather by CustomWeather, © 2014

Note: Actual official high and low records may vary slightly from our data, if they occured in-between our weather recording intervals... More about our weather records

Advertising

Offenburg weather history for previous 24 hours

 ConditionsComfort  
Time TempWeatherWind HumidityBarometerVisibility
4:00 PM
Jan 31
36 °FRain. Low clouds.3 mph94%29.12 "Hg9 mi
3:00 PM35 °FLight rain. Low clouds.3 mph94%29.12 "Hg9 mi
2:00 PM38 °FRain. Overcast.6 mph78%29.09 "Hg10 mi
1:00 PM41 °FOvercast.6 mph66%29.09 "Hg31 mi
12:00 PM40 °FOvercast.6 mph69%29.09 "Hg31 mi
11:00 AM38 °FOvercast.6 mph76%29.09 "Hg34 mi
10:00 AM36 °FOvercast.3 mph76%29.09 "Hg31 mi
9:00 AM35 °FOvercast.6 mph80%29.09 "Hg34 mi
8:00 AM35 °FOvercast.5 mph84%29.09 "Hg34 mi
7:00 AM36 °FOvercast.5 mph83%29.06 "Hg28 mi
6:00 AM35 °FOvercast.3 mph85%29.06 "Hg28 mi
5:00 AM35 °FOvercast.3 mph84%29.09 "Hg25 mi
4:00 AM35 °FOvercast.3 mph88%29.06 "Hg22 mi
3:00 AM35 °FOvercast.2 mph91%29.06 "Hg18 mi
2:00 AM35 °FLow clouds.5 mph90%29.03 "Hg25 mi
1:00 AM34 °FFog.2 mph98%29.03 "Hg4 mi
12:00 AM33 °FOvercast.1 mph98%29.03 "Hg4 mi
11:00 PM
Jan 30
36 °FDrizzle. Low clouds.2 mph93%29.00 "Hg16 mi
10:00 PM36 °FDrizzle. Low clouds.3 mph90%28.97 "Hg19 mi
9:00 PM36 °FLight rain. Overcast.5 mph89%28.97 "Hg17 mi
8:00 PM36 °FLight rain. Low clouds.5 mph91%28.94 "Hg6 mi
7:00 PM36 °FLight rain. Overcast.7 mph88%28.94 "Hg6 mi
6:00 PM36 °FLight rain. Overcast.9 mph86%28.91 "Hg7 mi
5:00 PM39 °FOvercast.9 mph70%28.91 "Hg11 mi
Weather by CustomWeather, © 2014

See weather overviewHow to use our weather pages